Weather History for LICA - November, 2012

Change the Weather History Date:

Tuesday, November 13, 2012

  Actual Average Record
Temperature  
Mean Temperature 66 °F -  
Max Temperature 73 °F 60 °F 75 °F (2000)
Min Temperature 60 °F 47 °F 44 °F (1998)
Cooling Degree Days 2    
Growing Degree Days 16 (Base 50)    
Moisture  
Dew Point 59 °F    
Average Humidity 80    
Maximum Humidity 94    
Minimum Humidity 61    
Precipitation  
Precipitation 0.00 in - - ()
Sea Level Pressure  
Sea Level Pressure 30.17 in    
Wind  
Wind Speed 10 mph ()    
Max Wind Speed 17 mph    
Max Gust Speed -    
Visibility 6.2 miles    
Events      
Averages and records for this station are not official NWS values.
T = Trace of Precipitation, MM = Missing Value Source: Averaged Metar Reports

Daily Weather History Graph

Daily Weather History Graph

Search for Another Location

Airport or City:

Trip Planner

Search our weather history database for the weather conditions in past years. The results will help you decide how hot, cold, wet, or windy it might be!

Date:

Astronomy

Nov. 13, 2012 Rise Set
Actual Time 6:35 AM CET 4:42 PM CET
Civil Twilight 6:07 AM CET 5:10 PM CET
Nautical Twilight 5:35 AM CET 5:43 PM CET
Astronomical Twilight 5:03 AM CET 6:14 PM CET
Moon 5:52 AM CET (11/13) 4:20 PM CET (11/13)
Length of Visible Light 11h 03m
Length of Day
10h 06m
Waning Crescent, 0% of the Moon is Illuminated
Nov 13
Waning Crescent
Nov 13
New
Nov 20
First Quarter
Nov 28
Full
Dec 6
Last Quarter

Hourly Weather History & Observations

Time (CET) Temp. Dew Point Humidity Pressure Visibility Wind Dir Wind Speed Gust Speed Precip Events Conditions
12:50 AM 64.4 °F 60.8 °F 88% 30.15 in - ENE 12.7 mph - N/A   Clear
1:50 AM 60.8 °F 59.0 °F 94% 30.15 in - East 9.2 mph - N/A   Clear
2:50 AM 60.8 °F 59.0 °F 94% 30.15 in - East 10.4 mph - N/A   Clear
3:50 AM 60.8 °F 57.2 °F 88% 30.18 in - East 10.4 mph - N/A   Clear
4:50 AM 60.8 °F 57.2 °F 88% 30.18 in - ENE 9.2 mph - N/A   Clear
5:50 AM 60.8 °F 57.2 °F 88% 30.18 in - East 11.5 mph - N/A   Clear
6:50 AM 60.8 °F 57.2 °F 88% 30.21 in - ENE 10.4 mph - N/A   Clear
7:50 AM 62.6 °F 59.0 °F 88% 30.21 in 6.2 mi East 6.9 mph - N/A   Partly Cloudy
8:50 AM 66.2 °F 59.0 °F 78% 30.21 in 6.2 mi East 8.1 mph - N/A   Partly Cloudy
9:50 AM 69.8 °F 60.8 °F 73% 30.21 in 6.2 mi East 15.0 mph - N/A   Partly Cloudy
10:50 AM 71.6 °F 60.8 °F 69% 30.18 in 6.2 mi ESE 13.8 mph - N/A   Partly Cloudy
11:50 AM 73.4 °F 59.0 °F 61% 30.18 in 6.2 mi ESE 15.0 mph - N/A   Partly Cloudy
12:50 PM 71.6 °F 59.0 °F 64% 30.15 in 6.2 mi ESE 17.3 mph - N/A   Partly Cloudy
1:50 PM 71.6 °F 59.0 °F 64% 30.15 in 6.2 mi ESE 15.0 mph - N/A   Partly Cloudy
2:50 PM 69.8 °F 59.0 °F 68% 30.15 in 6.2 mi East 12.7 mph - N/A   Partly Cloudy
3:50 PM 68.0 °F 60.8 °F 78% 30.15 in 6.2 mi East 13.8 mph - N/A   Mostly Cloudy
4:50 PM 68.0 °F 60.8 °F 78% 30.15 in 6.2 mi East 11.5 mph - N/A   Mostly Cloudy
5:50 PM 66.2 °F 60.8 °F 83% 30.15 in 6.2 mi East 11.5 mph - N/A   Mostly Cloudy
6:50 PM 66.2 °F 60.8 °F 83% 30.18 in 6.2 mi ENE 8.1 mph - N/A   Mostly Cloudy
7:50 PM 66.2 °F 59.0 °F 78% 30.18 in 6.2 mi ENE 9.2 mph - N/A   Partly Cloudy
8:50 PM 64.4 °F 59.0 °F 83% 30.18 in 6.2 mi NE 10.4 mph - N/A   Partly Cloudy
9:50 PM 62.6 °F 57.2 °F 82% 30.18 in 6.2 mi ENE 6.9 mph - N/A   Partly Cloudy
10:50 PM 62.6 °F 57.2 °F 82% 30.18 in 6.2 mi ENE 8.1 mph - N/A   Partly Cloudy
11:50 PM 62.6 °F 57.2 °F 82% 30.18 in 6.2 mi NE 9.2 mph - N/A   Partly Cloudy